Location: Dulzura
(32.6442°N, 116.7814°W)
Time: 08:08:30
(UTC+00:00)

Cosmos 921 Rocket - Visible Passes

Search period start: 26 June 2022 00:00
Search period end: 06 July 2022 00:00
Orbit: 571 x 631 km, 75.8° (Epoch: 25 June)

Date Brightness Start Highest point End Pass type
(mag) Time Alt. Az. Time Alt. Az. Time Alt. Az.
27 Jun 5.8 11:25:01 10° SE 11:27:44 16° E 11:30:27 10° ENE visible
28 Jun 5.0 11:35:23 10° SSE 11:39:15 29° E 11:43:07 10° NE visible
29 Jun 3.8 11:46:27 10° S 11:50:49 54° ESE 11:55:13 10° NNE visible
30 Jun 3.1 11:57:59 10° SSW 12:02:29 80° WNW 12:06:59 10° NNE visible
01 Jul 5.8 10:34:22 10° ESE 10:36:23 13° E 10:38:24 10° ENE visible
01 Jul 3.6 12:09:56 10° SW 12:14:12 42° WNW 12:18:28 10° N visible
02 Jul 5.1 10:44:27 11° SSE 10:47:53 24° E 10:51:27 10° NE visible
03 Jul 4.1 10:56:32 19° SSE 10:59:26 43° E 11:03:41 10° NNE visible
04 Jul 3.1 11:08:33 26° S 11:11:03 83° ESE 11:15:32 10° NNE visible
05 Jul 5.8 09:44:27 10° E 09:45:02 10° E 09:45:37 10° E visible
05 Jul 3.3 11:20:33 27° SW 11:22:45 52° WNW 11:27:07 10° N visible
